SKY MUSTER (NBN1A)

Last updated on Mon Jan 25 2021 10:36:40 GMT+0000 (Coordinated Universal Time)

1 40940U 15054A 21024.88662113 -.00000266 00000-0 00000-0 0 9991 2 40940 0.0128 350.4435 0001893 305.9385 287.4492 1.00270838 19519

Satellite not in orbit

SKY MUSTER (NBN1A)